Weather History for KFTK - May, 2013

Change the Weather History Date:

Monday, May 20, 2013

  Actual Average Record
Temperature  
Mean Temperature 74 °F -  
Max Temperature 84 °F 73 °F 85 °F (2012)
Min Temperature 64 °F 53 °F 41 °F (2002)
Cooling Degree Days 9    
Growing Degree Days 24 (Base 50)    
Moisture  
Dew Point 67 °F    
Average Humidity 78    
Maximum Humidity 100    
Minimum Humidity 58    
Precipitation  
Precipitation 0.00 in - - ()
Sea Level Pressure  
Sea Level Pressure 29.96 in    
Wind  
Wind Speed 8 mph (South)    
Max Wind Speed 14 mph    
Max Gust Speed -    
Visibility 7 miles    
Events      
Averages and records for this station are not official NWS values.
T = Trace of Precipitation, MM = Missing Value Source: NWS Daily Summary

Daily Weather History Graph

Daily Weather History Graph

Search for Another Location

Airport or City:

Trip Planner

Search our weather history database for the weather conditions in past years. The results will help you decide how hot, cold, wet, or windy it might be!

Date:

Astronomy

May. 20, 2013 Rise Set
Actual Time 6:29 AM EDT 8:51 PM EDT
Civil Twilight 5:59 AM EDT 9:21 PM EDT
Nautical Twilight 5:22 AM EDT 9:58 PM EDT
Astronomical Twilight 4:42 AM EDT 10:39 PM EDT
Moon 4:03 PM EDT (5/20) 3:19 AM EDT (5/20)
Length of Visible Light 15h 21m
Length of Day
14h 22m
Waxing Gibbous, 75% of the Moon is Illuminated
May 20
Waxing Gibbous
May 25
Full
May 31
Last Quarter
Jun 8
New
Jun 16
First Quarter

Hourly Weather History & Observations

Time (EDT) Temp. Heat Index Dew Point Humidity Pressure Visibility Wind Dir Wind Speed Gust Speed Precip Events Conditions
12:58 AM 70.0 °F - 66.0 °F 87% 29.94 in 5.0 mi South 8.1 mph - N/A   Clear
1:58 AM 68.5 °F - 65.3 °F 89% 29.94 in 4.0 mi SSE 5.8 mph - N/A   Clear
2:58 AM 67.5 °F - 65.1 °F 92% 29.93 in 4.0 mi SSE 6.9 mph - N/A   Clear
3:58 AM 66.2 °F - 64.2 °F 93% 29.93 in 4.0 mi South 5.8 mph - N/A   Clear
4:58 AM 64.8 °F - 64.2 °F 98% 29.95 in 4.0 mi South 5.8 mph - N/A   Clear
5:58 AM 64.2 °F - 64.0 °F 99% 29.96 in 3.0 mi SSE 5.8 mph - N/A   Clear
6:23 AM 64.4 °F - 64.4 °F 100% 29.98 in 2.5 mi South 5.8 mph - N/A   Clear
6:43 AM 64.4 °F - 64.4 °F 100% 29.98 in 4.0 mi South 6.9 mph - N/A   Clear
6:58 AM 64.2 °F - 64.2 °F 100% 29.99 in 4.0 mi South 6.9 mph - N/A   Partly Cloudy
7:58 AM 66.4 °F - 64.9 °F 95% 29.99 in 7.0 mi South 8.1 mph - N/A   Scattered Clouds
8:58 AM 69.8 °F - 66.2 °F 88% 29.99 in 7.0 mi South 9.2 mph - N/A   Mostly Cloudy
9:58 AM 73.4 °F - 67.5 °F 82% 30.00 in 7.0 mi South 10.4 mph - N/A   Mostly Cloudy
10:19 AM 75.2 °F - 68.0 °F 78% 30.01 in 7.0 mi SSW 10.4 mph - N/A   Mostly Cloudy
10:58 AM 76.1 °F - 68.7 °F 78% 30.00 in 7.0 mi SSW 9.2 mph - N/A   Overcast
11:15 AM 77.0 °F - 69.8 °F 78% 30.01 in 7.0 mi SSW 5.8 mph - N/A   Mostly Cloudy
11:43 AM 78.8 °F - 69.8 °F 74% 30.02 in 7.0 mi SSW 5.8 mph - N/A   Mostly Cloudy
11:58 AM 79.0 °F - 69.4 °F 72% 30.00 in 7.0 mi South 11.5 mph - N/A   Mostly Cloudy
12:38 PM 80.6 °F 83.9 °F 69.8 °F 70% 30.01 in 7.0 mi SSW 8.1 mph - N/A   Mostly Cloudy
12:43 PM 80.6 °F 83.9 °F 69.8 °F 70% 30.01 in 7.0 mi SSW 11.5 mph - N/A   Mostly Cloudy
12:58 PM 80.8 °F 84.4 °F 70.5 °F 71% 29.99 in 8.0 mi Variable 6.9 mph - N/A   Mostly Cloudy
1:58 PM 81.5 °F 84.6 °F 68.9 °F 65% 29.97 in 10.0 mi South 10.4 mph - N/A   Mostly Cloudy
2:58 PM 83.7 °F 87.5 °F 69.3 °F 62% 29.96 in 10.0 mi South 13.8 mph - N/A   Scattered Clouds
3:58 PM 83.7 °F 86.5 °F 67.5 °F 58% 29.95 in 10.0 mi South 11.5 mph - N/A   Mostly Cloudy
4:11 PM 84.2 °F 87.3 °F 68.0 °F 58% 29.95 in 10.0 mi SSW 12.7 mph - N/A   Scattered Clouds
4:58 PM 83.5 °F 86.7 °F 68.2 °F 60% 29.94 in 10.0 mi South 10.4 mph - N/A   Mostly Cloudy
5:58 PM 84.0 °F 87.0 °F 68.0 °F 58% 29.92 in 10.0 mi South 13.8 mph - N/A   Scattered Clouds
6:58 PM 82.0 °F 84.7 °F 67.5 °F 61% 29.92 in 10.0 mi South 9.2 mph - N/A   Scattered Clouds
7:58 PM 80.6 °F 83.1 °F 67.3 °F 64% 29.91 in 10.0 mi South 9.2 mph - N/A   Scattered Clouds
8:58 PM 77.0 °F - 67.1 °F 71% 29.90 in 10.0 mi SSE 9.2 mph - N/A   Partly Cloudy
9:58 PM 75.0 °F - 66.6 °F 75% 29.90 in 10.0 mi SSE 8.1 mph - N/A   Clear
10:58 PM 73.9 °F - 66.0 °F 76% 29.92 in 8.0 mi South 6.9 mph - N/A   Clear
11:58 PM 72.3 °F - 66.0 °F 80% 29.91 in 10.0 mi South 8.1 mph - N/A   Clear